Miscellaneous Local Product
Issued by NWS North Platte, NE

Home | Current Version | Previous Version | Text Only | Print | Product List | Glossary On
Versions: 1 2 3 4 5 6 7 8 9 10 11 12 13 14 15 16 17 18 19 20 21 22 23 24 25 26 27 28 29 30 31 32 33 34 35 36 37 38 39 40 41 42 43 44 45 46 47 48 49 50
000
AXUS43 KLBF 020110
MISLBF


WESTERN AND NORTH CENTRAL NEBRASKA HOURLY WEATHER ROUNDUP
NATIONAL WEATHER SERVICE NORTH PLATTE NE
800 PM CDT MON SEP 01 2014

***STATIONS NOT REPORTING VARIABLES SUCH AS SKY/WEATHER OR
PRESSURE ARE PROVIDED BY THE NEBRASKA DEPARTMENT OF
ROADS...RAWS...AND APRS NETWORKS...AND ARE NOT UNDER
NATIONAL WEATHER SERVICE QUALITY CONTROL***

...OBSERVATIONS IN AND NEAR THE EASTERN PANHANDLE OF NEBRASKA...

CITY           SKY/WX    TMP DP  RH WIND       PRES   REMARKS
PINE RIDGE     PTCLDY    57  53  86 MISG      29.98R
CHADRON        LGT RAIN  62  51  67 NE8       29.95F
ALLIANCE       LGT RAIN  62  48  60 N14       30.00R
SIDNEY         PTCLDY    70  43  37 N16       29.98R
WHITECLAY        N/A     57  51  80 CALM        N/A
RUSHVILLE        N/A     58  46  65 N10         N/A
GORDON           N/A     57  48  72 NE71        N/A
CRESCENT LAKE    N/A     62  44  51 NE16        N/A
LISCO            N/A     70  45  39 W16         N/A
$$

...OBSERVATIONS IN NORTH CENTRAL NEBRASKA...

CITY           SKY/WX    TMP DP  RH WIND       PRES   REMARKS
VALENTINE      CLOUDY    59  55  87 NW8       29.95R
THEDFORD       MOCLDY    59  56  89 N6        29.95R
AINSWORTH      CLOUDY    58  54  87 NW3       29.97R
O`NEILL        LGT RAIN  70  60  71 NE5       29.87S
ORD            CLEAR     69  58  67 S7        29.86F
BROKEN BOW     PTCLDY    69  56  62 S6        29.87F
SPRINGVIEW       N/A     58  55  90 CALM        N/A
ROSE             N/A     62  59  90 W21         N/A
NEWPORT          N/A     60  58  92 W10         N/A
COMSTOCK         N/A     70  63  79 S8          N/A
CHAMBERS         N/A     68  51  54 CALM        N/A
EWING            N/A     69  61  75 CALM        N/A
$$

...OBSERVATIONS IN SOUTHWEST NEBRASKA AND FAR NORTHEAST COLORADO...

CITY           SKY/WX    TMP DP  RH WIND       PRES   REMARKS
WRAY             N/A     74  51  44 SE6       29.93S
HOLYOKE        FAIR      73  55  53 SE6       29.93R
IMPERIAL       CLEAR     73  52  47 SE7       29.91S
OGALLALA       PTCLDY    69  54  58 S5        29.89S
NORTH PLATTE   PTCLDY    66  56  70 E6        29.89F
MCCOOK         CLEAR     71  55  56 E8        29.91F
LEXINGTON      CLEAR     66  58  74 S5        29.92S
SUTHERLAND       N/A     74  54  49 S3          N/A
BRADY            N/A     71  55  58 CALM        N/A
GOTHENBURG       N/A     75  53  45 SE3         N/A
CALLAWAY         N/A     68  59  74 S12         N/A
$$

...SOME WEATHER OBSERVATIONS FROM AROUND THE REGION...

CITY           SKY/WX    TMP DP  RH WIND       PRES   REMARKS
DENVER         PTCLDY    72  44  36 NE8       30.02R
LARAMIE        PTCLDY    64  30  27 NW17      30.14R
CHEYENNE       PTCLDY    69  32  25 NW12      30.07R
SCOTTSBLUFF    LGT RAIN  68  48  48 N10       29.99R
RAPID CITY     PTCLDY    64  51  62 NE3       29.96R
PIERRE         CLOUDY    64  53  67 NE5       29.86R
WINNER         CLOUDY    62  57  83 SW9       29.92S
SIOUX FALLS    PTCLDY    70  55  59 CALM      29.85R
OMAHA          CLOUDY    74  61  63 CALM      29.86S
GRAND ISLAND   PTCLDY    69  59  70 S6        29.89F
KANSAS CITY    MOCLDY    75  70  84 CALM      29.85F
WICHITA        CLOUDY    79  69  71 NE16      29.84R
HAYS           CLEAR     75  63  64 E7        29.90S
LIBERAL        CLEAR     81  63  54 E10       29.91S
GOODLAND       CLEAR     74  51  44 SE8       29.95R
$$



USA.gov is the U.S. government's official web portal to all federal, state and local government web resources and services.